Probability
0 0 0 0 0 0 0 0 0 0 0 0 0 0 0 0 0 0 0 0 0 0 0 0 0 0 0 0 0 0 0 0 0 0 0 0 0 0 0 0 0 0 0
0 0 0 0 0 0 0 0 0 0 0 0 0 0 0 0 0 0 0 0 0 0 0 0 0 0 0 0 0 0 0 0 0 0 0 0 0 0 0 0 0 0 0
0 0 0 0 0 0 0 0 0 0 0 0 0 0 0 0 0 0 0 0 0 0 0 0 0 0 0 0 0 0 0 0 0 0 0 0 0 0 0 0 0 0 0
0 0 0 0 0 0 0 0 0 0 0 0 0 0 0 0 0 0 0 0 0 0 0 0 0 0 0 0 0 0 0 0 0 0 0 0 0 0 0 0 0 0 0
0 0 0 0 0 0 0 0 0 0 0 0 0 0 0 0 0 0 0 0 0 0 0 0 0 0 0 0 0 0 0 0 0 0 0 0 0 0 0 0 0 0 0
0 0 0 0 0 0 0 0 0 0 0 0 0 0 0 0 0 0 0 0 0 0 0 0 0 0 0 0 0 0 0 0 0 0 0 0 0 0 0 0 0 0 0
0 0 0 0 0 0 0 0 0 0 0 0 0 0 0 0 0 0 0 0 0 0 0 0 0 0 0 0 0 0 0 0 0 0 0 0 0 0 0 0 0 0 0
0 0 0 0 0 0 0 0 0 0 0 0 0 0 0 0 0 0 0 0 0 0 0 0 0 0 0 0 0 0 0 0 0 0 0 0 0 0 0 0 0 0 0
0 0 0 0 0 0 0 0 0 0 0 0 0 0 0 0 0 0 0 0 0 0 0 0 0 0 0 0 0 0 0 0 0 0 0 0 0 0 0 0 0 0 0
0 0 0 0 0 0 0 0 0 0 0 0 0 0 0 0 0 0 0 0 0 0 0 0 0 0 0 0 0 0 0 0 0 0 0 0 0 0 0 0 0 0 0
0 0 0 0 0 0 0 0 0 0 0 0 0 0 0 0 0 0 0 0 0 0 0 0 0 0 0 0 0 0 0 0 0 0 0 0 0 0 0 0 0 0 0
0 0 0 0 0 0 0 0 0 0 0 0 0 0 0 0 0 0 0 0 0 0 0 0 0 0 0 0 0 0 0 0 0 0 0 0 0 0 0 0 0 0 0
0 0 0 0 0 0 0 0 0 0 0 0 0 0 0 0 0 0 0 0 0 0 0 0 0 0 0 0 0 0 0 0 0 0 0 0 0 0 0 0 0 0 0
0 0 0 0 0 0 0 0 0 0 0 0 0 0 0 0 0 0 0 0 0 0 0 0 0 0 0 0 0 0 0 0 0 0 0 0 0 0 0 0 0 0 0
0 0 0 0 0 0 0 0 0 0 0 0 0 0 0 0 0 0 0 0 0 0 0 0 0 0 0 0 0 0 0 0 0 0 0 0 0 0 0 0 0 0 0
0 0 0 0 0 0 0 0 0 0 0 0 0 0 0 0 0 0 0 0 0 0 0 0 0 0 0 0 0 0 0 0 0 0 0 0 0 0 0 0 0 0 0
0 0 0 0 0 0 0 0 0 0 0 0 0 0 0 0 0 0 0 0 0 0 0 0 0 0 0 0 0 0 0 0 0 0 0 0 0 0 0 0 0 0 0
0 0 0 0 0 0 0 0 0 0 0 0 0 0 0 0 0 0 0 0 0 0 0 0 0 0 0 0 0 0 0 0 0 0 0 0 0 0 0 0 0 0 0
0 0 0 0 0 0 0 0 0 0 0 0 0 0 0 0 0 0 0 0 0 0 0 0 0 0 0 0 0 0 0 0 0 0 0 0 0 0 0 0 0 0 0
0 0 0 0 0 0 0 0 0 0 0 0 0 0 0 0 0 0 0 0 0 0 0 0 0 0 0 0 0 0 0 0 0 0 0 0 0 0 0 0 0 0 0
0 0 0 0 0 0 0 0 0 0 0 0 0 0 0 0 0 0 0 0 0 0 0 0 0 0 0 0 0 0 0 0 0 0 0 0 0 0 0 0 0 0 0
0 0 0 0 0 0 0 0 0 0 0 0 0 0 0 0 0 0 0 0 0 0 0 0 0 0 0 0 0 0 0 0 0 0 0 0 0 0 0 0 0 0 0
0 0 0 0 0 0 0 0 0 0 0 0 0 0 0 0 0 0 0 0 0 0 0 0 0 0 0 0 0 0 0 0 0 0 0 0 0 0 0 0 0 0 0
0 0 0 0 0 0 0 0 0 0 0 0 0 0 0 0 0 0 0 0 0 0 0 0 0 0 0 0 0 0 0 0 0 0 0 0 0 0 0 0 0 0 0
0 0 0 0 0 0 0 0 0 0 0 0 0 0 0 0 0 0 0 0 0 0 0 0 0 0 0 0 0 0 0 0 0 0 0 0 0 0 0 0 0 0 0
0 0 0 0 0 0 0 0 0 0 0 0 0 0 0 0 0 0 0 0 0 0 0 0 0 0 0 0 0 0 0 0 0 0 0 0 0 0 0 0 0 0 0
Wind_Speed
6 6 6 6 6 6 6 7 7 6 6 6 6 6 6 6 5 5 5 4 5 4 3 4 4 3 3 2 2 2 2 2 4 3 2 2 3 3 4 3 4 4 5
6 6 6 6 6 6 7 7 7 6 6 6 6 6 6 6 6 6 6 6 6 5 5 4 4 3 4 3 3 3 3 3 4 5 3 2 3 3 3 4 4 4 4
4 5 6 6 6 7 7 6 7 7 6 6 6 7 6 6 6 6 6 6 5 5 5 5 5 5 5 4 4 4 3 3 3 4 4 2 2 2 3 4 4 4 4
4 5 6 7 7 7 6 6 6 7 7 7 7 6 6 6 6 6 5 5 5 5 5 5 5 6 6 5 4 4 4 3 3 3 4 3 2 2 2 3 4 3 4
5 6 6 5 5 5 5 5 5 5 6 6 5 5 5 5 5 6 6 6 5 5 4 4 5 6 7 6 4 4 4 4 3 3 4 3 3 2 3 2 4 4 4
5 5 4 4 4 4 4 5 5 5 4 4 5 5 5 5 7 9 7 6 5 5 5 5 5 5 6 8 8 7 6 5 5 4 4 5 5 3 2 2 3 3 4
4 3 4 4 4 4 4 4 4 5 4 4 4 4 4 4 7 8 8 6 5 5 6 5 4 4 5 4 6 6 6 7 7 5 6 6 5 4 3 3 3 3 5
2 2 2 3 3 3 3 4 4 3 4 4 4 4 4 4 6 6 7 5 4 5 5 5 5 4 4 5 4 3 4 4 5 5 5 5 4 3 3 3 3 4 4
2 2 2 3 3 3 4 4 3 3 3 3 3 4 4 3 5 6 5 3 3 4 4 4 4 4 6 6 4 4 4 4 4 5 5 6 6 5 3 1 1 2 4
2 2 1 2 3 3 3 3 2 3 3 2 2 2 3 3 4 5 6 3 3 3 3 3 5 6 7 7 5 5 5 4 2 2 3 5 4 4 5 4 3 3 3
1 0 1 2 2 2 2 2 2 2 2 2 2 2 2 3 3 5 6 3 3 3 3 3 3 6 7 7 6 5 6 3 2 2 3 2 2 2 2 3 3 4 4
1 1 1 1 1 1 2 2 2 2 2 2 2 1 1 2 2 4 5 5 4 3 3 3 3 5 6 6 5 5 5 3 2 2 3 3 3 3 3 3 4 5 5
1 1 1 1 1 1 2 2 2 2 2 1 1 2 1 1 1 3 4 5 5 3 3 4 4 5 5 4 5 5 3 2 2 3 4 4 3 3 2 2 3 4 5
1 1 1 1 1 1 1 1 2 2 2 2 2 2 1 1 1 1 2 2 3 3 2 2 4 5 4 3 2 3 2 3 3 4 3 3 2 2 2 2 2 2 2
1 1 1 1 1 1 1 1 2 2 2 3 2 2 2 2 3 3 2 2 2 2 1 0 0 1 1 1 1 1 2 2 3 3 3 3 3 3 2 2 2 2 2
0 0 0 0 0 1 1 0 1 1 1 2 2 1 2 2 2 2 3 2 2 1 2 1 2 2 2 2 2 2 2 3 3 3 3 3 3 3 3 2 2 3 4
1 1 1 1 1 1 1 1 1 1 2 3 3 4 3 3 3 3 3 2 1 2 2 2 2 2 3 2 2 3 3 3 3 3 3 3 3 3 3 3 3 3 4
1 0 1 1 1 1 1 1 1 1 1 2 3 4 4 4 3 3 2 1 1 1 2 2 3 3 3 3 3 3 3 2 2 3 3 3 3 3 3 3 3 4 4
1 1 1 1 1 1 1 1 1 1 2 2 2 2 3 3 3 2 1 1 2 2 3 3 3 3 3 3 3 3 3 3 3 3 3 3 3 3 4 4 4 4 4
1 0 1 1 1 1 1 1 1 1 2 2 2 2 1 0 1 2 2 2 2 3 3 3 3 3 3 3 3 3 3 3 3 3 3 3 3 3 4 4 4 4 4
1 1 1 1 1 1 1 2 2 2 2 2 3 3 2 1 2 3 3 3 3 4 4 4 3 3 3 3 3 4 4 4 3 3 3 3 3 3 3 3 4 4 4
1 1 1 1 1 1 1 1 2 2 2 3 3 3 4 2 2 3 3 4 4 4 3 3 4 4 4 4 4 4 4 4 4 3 3 3 3 3 3 3 3 3 3
1 1 1 1 1 1 1 1 2 2 2 3 3 3 3 3 3 3 4 4 3 3 3 3 4 4 4 4 4 4 5 5 5 4 4 4 4 4 3 4 4 4 4
1 2 2 1 1 2 2 2 2 3 3 3 3 3 4 4 4 4 4 3 3 3 3 3 4 5 6 5 4 4 5 5 5 5 6 5 5 4 4 4 4 5 4
2 2 2 2 2 2 2 2 3 3 3 3 4 4 4 4 4 4 4 3 4 4 4 4 4 4 6 7 6 6 7 8 7 5 5 5 6 5 5 5 4 4 4
2 3 3 2 3 3 3 3 3 4 4 4 4 4 4 4 4 4 4 3 3 4 4 4 5 6 7 6 7 8 8 8 8 8 6 5 5 5 5 4 4 4 4
Wind_Direction
209 207 206 207 203 197 200 207 203 198 195 196 197 196 195 193 189 190 196 185 191 197 195 195 204 191 189 188 187 189 203 201 237 269 258 276 268 274 296 288 283 281 285
210 205 209 208 200 199 205 206 199 197 198 199 194 194 197 196 191 193 197 193 194 200 203 198 206 194 197 195 193 202 209 210 220 256 273 265 260 270 280 287 290 285 280
207 206 207 206 203 206 208 204 197 195 195 194 192 195 197 198 196 197 197 195 198 202 201 202 207 195 205 205 200 205 213 218 220 241 265 266 270 278 291 290 288 286 286
204 205 209 209 207 207 204 201 198 194 193 193 196 197 198 196 197 196 192 192 195 203 205 207 209 205 208 206 208 210 210 214 218 237 258 270 270 271 273 283 298 296 296
201 208 215 211 206 201 198 197 195 193 197 194 192 194 193 193 198 193 190 191 193 201 210 216 217 216 215 212 211 208 201 209 218 232 250 265 263 263 262 267 282 302 293
204 212 212 204 199 198 198 194 189 191 190 184 194 195 197 203 201 197 190 190 193 199 210 217 220 218 222 225 227 223 211 208 219 227 243 249 257 255 259 259 277 302 295
200 205 203 198 197 198 191 181 184 186 179 182 189 187 195 204 204 201 201 191 195 204 209 211 217 217 211 210 225 233 234 237 230 225 236 244 249 241 233 251 253 261 267
192 199 193 189 195 187 181 185 185 180 179 184 184 185 190 203 200 199 199 195 201 211 213 211 212 217 210 203 202 215 229 238 239 236 236 244 243 234 218 230 244 268 278
212 213 198 184 183 177 184 193 187 174 179 181 176 179 189 205 202 202 199 188 204 219 217 212 214 218 221 214 203 213 234 246 245 233 241 250 254 250 234 209 234 266 279
234 223 189 175 178 185 190 186 174 171 177 168 183 181 191 204 205 206 203 194 206 217 217 218 225 224 226 220 209 210 232 242 225 244 256 264 262 257 245 226 218 230 252
276 111 140 164 178 181 169 154 147 156 151 160 177 189 196 204 216 216 210 202 207 213 219 223 226 232 235 231 227 223 234 239 224 230 251 258 259 249 242 233 226 223 230
58 106 144 165 166 154 142 130 128 148 155 171 178 208 214 209 218 232 228 223 219 215 227 230 232 238 239 242 242 239 241 242 224 232 246 251 251 252 249 241 237 237 237
99 124 128 126 133 132 148 146 136 147 166 184 192 215 228 212 239 241 240 238 238 230 231 236 243 246 249 248 248 247 240 226 226 240 250 252 249 247 244 249 244 242 249
142 152 127 132 122 110 141 155 163 177 191 198 207 226 245 240 233 232 235 237 237 239 244 244 248 250 251 251 246 247 237 229 232 243 255 260 263 253 246 244 259 275 277
140 116 107 124 150 162 174 196 193 203 200 196 209 208 213 241 251 238 219 222 213 217 183 170 232 234 256 271 278 275 256 247 246 251 251 256 259 259 258 243 240 242 250
126 142 163 178 187 180 178 299 272 246 260 241 228 209 257 272 296 253 253 251 245 185 142 204 230 230 239 254 262 263 249 250 252 256 257 254 255 255 258 252 241 241 256
176 212 205 193 198 199 196 204 262 304 277 267 265 261 262 274 274 269 260 242 233 162 185 226 238 245 249 253 254 254 256 260 254 249 251 255 259 262 261 257 250 253 259
169 183 184 205 206 200 207 215 219 233 272 291 291 276 274 274 279 281 269 182 236 216 226 234 242 249 250 250 252 258 267 270 261 255 252 250 247 250 255 256 251 250 261
183 200 196 193 196 203 206 206 218 232 250 278 306 302 293 280 281 286 138 177 225 235 238 243 245 247 251 250 251 253 255 256 260 258 257 256 252 251 254 254 255 258 257
210 218 168 174 168 179 207 224 235 244 251 260 267 274 272 192 233 248 228 223 227 238 244 247 247 246 249 249 248 247 251 253 254 253 258 258 254 250 256 259 258 257 257
212 214 175 165 190 204 211 224 234 240 248 259 273 283 252 206 228 236 235 232 231 234 237 241 246 247 243 243 243 243 243 248 247 250 255 259 257 256 257 257 259 259 265
188 198 204 210 214 218 231 231 231 241 254 262 281 288 276 259 246 246 244 243 239 237 235 237 241 239 239 240 239 241 244 245 244 243 247 250 251 252 253 253 256 261 261
190 197 212 229 230 230 233 240 239 242 254 263 269 274 268 256 252 252 254 255 252 247 240 236 244 250 244 242 240 236 238 242 241 238 239 241 241 244 243 247 252 259 260
201 205 215 229 234 234 238 243 245 247 250 255 257 258 259 254 252 255 257 257 256 254 250 244 244 250 253 252 247 245 244 245 239 232 227 229 234 238 239 243 246 252 255
205 212 220 225 229 236 245 250 251 250 250 251 252 256 261 259 255 255 253 252 254 257 258 255 254 254 256 257 256 252 255 256 247 231 224 224 230 232 234 237 240 247 246
220 225 233 232 231 231 233 243 251 254 254 255 254 254 257 258 256 255 254 251 255 260 261 259 258 258 259 259 261 264 262 258 247 233 221 219 220 226 226 231 233 237 240